sat.trackr.live / text

‹ back to catalog

STARLINK-31363

NORAD 59782 · 2024-093A

PAYLOAD ACTIVE UNKNOWN

§ Identity

Operator
Country
US
Launch date
2024-05-18
Launch site
AFETR
Launch vehicle
Mass (kg)
RCS (m²)

Purposes: comms

External: N2YO · Heavens-Above · Gunter

§ Orbital elements

Epoch: 2026-05-25T00:09:41.060736Z

Period
94.27 min
Inclination
43.0007°
Eccentricity
0.0001203
Mean motion
15.27576075 rev/d
Perigee alt
482.2 km
Apogee alt
483.9 km
Semi-major
6,861.2 km
B*
2.1448e-5
RAAN
134.6935°
Arg perigee
275.5738°
Mean anomaly
84.4976°
Rev number
11,440

§ Raw data

STARLINK-313631 59782U 24093A   26145.00672524  .00000328  00000+0  21448-4 0  99982 59782  43.0007 134.6935 0001203 275.5738  84.4976 15.27576075114404

JSON: /api/v1/satellites/59782 · /tle

For live sub-satellite position, see the globe view (requires WebGL).

§ Visibility from observer

Set your observer location to see the next 7 days of passes ≥ 10°. The values pass through the URL so the page stays shareable.

No JS? Fill the form by hand. The geolocation button needs JavaScript.